sat.trackr.live / text

‹ back to catalog

2024-095A

NORAD 59810 · 2024-095A

PAYLOAD ACTIVE UNKNOWN

§ Identity

Operator
Country
PRC
Launch date
2024-05-21
Launch site
JSC
Launch vehicle
Mass (kg)
RCS (m²)

External: N2YO · Heavens-Above · Gunter

§ Orbital elements

Epoch: 2026-05-25T05:35:56.892768Z

Period
95.29 min
Inclination
97.5342°
Eccentricity
0.0003158
Mean motion
15.11113386 rev/d
Perigee alt
530.6 km
Apogee alt
535.0 km
Semi-major
6,910.9 km
B*
2.8385e-4
RAAN
224.4768°
Arg perigee
41.8806°
Mean anomaly
318.2665°
Rev number
11,067

§ Raw data

2024-095A1 59810U 24095A   26145.23329737  .00004692  00000+0  28385-3 0  99962 59810  97.5342 224.4768 0003158  41.8806 318.2665 15.11113386110678

JSON: /api/v1/satellites/59810 · /tle

For live sub-satellite position, see the globe view (requires WebGL).

§ Visibility from observer

Set your observer location to see the next 7 days of passes ≥ 10°. The values pass through the URL so the page stays shareable.

No JS? Fill the form by hand. The geolocation button needs JavaScript.